Tracking 18784 objects as of 18-August-2017
HD Live streaming from Space Station
objects crossing your sky now

OSCAR 3

Track OSCAR 3 now!
10-day predictions
OSCAR 3 is classified as:


NORAD ID: 1293
Int'l Code: 1965-016F
Perigee: 867.9 km
Apogee: 891.3 km
Inclination: 70.1 °
Period: 102.4 minutes
Semi major axis: 7250 km
RCS: 0.24 m2 (medium)
Launch date: March 9, 1965
Source: United States (US)
Launch site: AIR FORCE WESTERN TEST RANGE (AFWTR)
Uplink (MHz): 145.975-146.025
Downlink (MHz): 144.325-144.375
Beacon (MHz):
Mode: SSB CW
Call sign:
Status: Inactive

Your satellite tracking list
Your tracking list is empty





NASA's NSSDC Master Catalog

Two Line Element Set (TLE):
1 01293U 65016F   17230.55235430 -.00000029  00000-0  14818-4 0  9991
2 01293  70.0737 193.9580 0016099 151.7269 208.4720 14.06185843679119
Source of the keplerian elements: AFSPC